Weather History for KUOX - January, 2014

Change the Weather History Date:

Saturday, January 4, 2014

  Actual Average Record
Temperature  
Mean Temperature 36 °F -  
Max Temperature 50 °F 48 °F 73 °F (1939)
Min Temperature 23 °F 28 °F 11 °F (1959)
Degree Days  
Heating Degree Days 28    
Moisture  
Dew Point 21 °F    
Average Humidity 57    
Maximum Humidity 76    
Minimum Humidity 37    
Precipitation  
Precipitation 0.00 in - - ()
Sea Level Pressure  
Sea Level Pressure 30.16 in    
Wind  
Wind Speed 3 mph (SSE)    
Max Wind Speed 8 mph    
Max Gust Speed 17 mph    
Visibility 10 miles    
Events      
Averages and records for this station are not official NWS values.
T = Trace of Precipitation, MM = Missing Value Source: NWS Daily Summary

Daily Weather History Graph

Daily Weather History Graph

Search for Another Location

Airport or City:

Trip Planner

Search our weather history database for the weather conditions in past years. The results will help you decide how hot, cold, wet, or windy it might be!

Date:

Astronomy

Jan. 04, 2014 Rise Set
Actual Time 7:05 AM CST 5:01 PM CST
Civil Twilight 6:37 AM CST 5:29 PM CST
Nautical Twilight 6:06 AM CST 6:00 PM CST
Astronomical Twilight 5:35 AM CST 6:30 PM CST
Moon 9:20 AM CST (1/4) 9:09 PM CST (1/4)
Length of Visible Light 10h 51m
Length of Day
9h 56m
Waxing Crescent, 15% of the Moon is Illuminated
Jan 4
Waxing Crescent
Jan 7
First Quarter
Jan 15
Full
Jan 23
Last Quarter
Jan 30
New

Hourly Weather History & Observations

Time (CST) Temp. Windchill Dew Point Humidity Pressure Visibility Wind Dir Wind Speed Gust Speed Precip Events Conditions
12:15 AM 26.6 °F - 12.2 °F 55% 30.27 in 10.0 mi Calm Calm - N/A   Clear
12:35 AM 26.6 °F 22.6 °F 10.4 °F 51% 30.27 in 10.0 mi South 3.5 mph - N/A   Clear
12:55 AM 26.6 °F 22.6 °F 12.2 °F 55% 30.27 in 10.0 mi South 3.5 mph - N/A   Clear
1:15 AM 24.8 °F - 12.2 °F 59% 30.27 in 10.0 mi Calm Calm - N/A   Clear
1:35 AM 24.8 °F - 12.2 °F 59% 30.28 in 10.0 mi Calm Calm - N/A   Clear
1:55 AM 24.8 °F 20.5 °F 12.2 °F 59% 30.29 in 10.0 mi South 3.5 mph - N/A   Clear
2:15 AM 24.8 °F - 12.2 °F 59% 30.30 in 10.0 mi Calm Calm - N/A   Clear
2:35 AM 24.8 °F 20.5 °F 12.2 °F 59% 30.30 in 10.0 mi South 3.5 mph - N/A   Clear
2:55 AM 24.8 °F - 12.2 °F 59% 30.30 in 10.0 mi Calm Calm - N/A   Clear
3:15 AM 23.0 °F - 14.0 °F 68% 30.30 in 10.0 mi Calm Calm - N/A   Clear
3:35 AM 23.0 °F - 14.0 °F 68% 30.29 in 10.0 mi Calm Calm - N/A   Clear
3:55 AM 23.0 °F - 14.0 °F 68% 30.28 in 10.0 mi Calm Calm - N/A   Clear
4:15 AM 23.0 °F 18.4 °F 12.2 °F 63% 30.27 in 10.0 mi SSE 3.5 mph - N/A   Clear
4:35 AM 23.0 °F 18.4 °F 12.2 °F 63% 30.27 in 10.0 mi SSE 3.5 mph - N/A   Clear
4:55 AM 23.0 °F 18.4 °F 12.2 °F 63% 30.26 in 10.0 mi South 3.5 mph - N/A   Clear
5:15 AM 24.8 °F 20.5 °F 12.2 °F 59% 30.26 in 10.0 mi South 3.5 mph - N/A   Clear
5:35 AM 24.8 °F 19.1 °F 12.2 °F 59% 30.26 in 10.0 mi SSE 4.6 mph - N/A   Clear
5:55 AM 23.0 °F 18.4 °F 12.2 °F 63% 30.25 in 10.0 mi SSE 3.5 mph - N/A   Clear
6:15 AM 23.0 °F 18.4 °F 12.2 °F 63% 30.24 in 10.0 mi SSE 3.5 mph - N/A   Clear
6:35 AM 23.0 °F 18.4 °F 12.2 °F 63% 30.24 in 10.0 mi SSE 3.5 mph - N/A   Clear
6:55 AM 23.0 °F 18.4 °F 14.0 °F 68% 30.24 in 10.0 mi SSE 3.5 mph - N/A   Clear
7:15 AM 23.0 °F - 14.0 °F 68% 30.25 in 10.0 mi Calm Calm - N/A   Clear
7:35 AM 23.0 °F 18.4 °F 14.0 °F 68% 30.25 in 10.0 mi SSE 3.5 mph - N/A   Clear
7:55 AM 24.8 °F 19.1 °F 14.0 °F 64% 30.26 in 10.0 mi South 4.6 mph - N/A   Clear
8:15 AM 24.8 °F 20.5 °F 14.0 °F 64% 30.27 in 10.0 mi South 3.5 mph - N/A   Clear
8:35 AM 26.6 °F 20.0 °F 14.0 °F 59% 30.26 in 10.0 mi South 5.8 mph - N/A   Clear
8:55 AM 28.4 °F 22.2 °F 14.0 °F 55% 30.26 in 9.0 mi South 5.8 mph - N/A   Clear
9:15 AM 30.2 °F 24.3 °F 14.0 °F 51% 30.26 in 10.0 mi South 5.8 mph - N/A   Clear
9:35 AM 32.0 °F 27.5 °F 15.8 °F 51% 30.26 in 10.0 mi South 4.6 mph - N/A   Clear
9:55 AM 33.8 °F 27.0 °F 15.8 °F 48% 30.25 in 10.0 mi South 8.1 mph - N/A   Clear
10:15 AM 35.6 °F 29.2 °F 15.8 °F 44% 30.24 in 10.0 mi South 8.1 mph - N/A   Clear
10:35 AM 37.4 °F 33.8 °F 15.8 °F 41% 30.23 in 10.0 mi South 4.6 mph - N/A   Clear
10:55 AM 37.4 °F 33.8 °F 17.6 °F 45% 30.22 in 10.0 mi South 4.6 mph - N/A   Clear
11:15 AM 39.2 °F 35.0 °F 17.6 °F 42% 30.21 in 10.0 mi South 5.8 mph - N/A   Clear
11:35 AM 41.0 °F 38.0 °F 19.4 °F 42% 30.19 in 10.0 mi South 4.6 mph - N/A   Clear
11:55 AM 41.0 °F 36.4 °F 19.4 °F 42% 30.17 in 10.0 mi South 6.9 mph - N/A   Clear
12:15 PM 44.6 °F 40.2 °F 19.4 °F 37% 30.16 in 10.0 mi South 8.1 mph 17.3 mph N/A   Clear
12:35 PM 44.6 °F 42.2 °F 19.4 °F 37% 30.14 in 10.0 mi South 4.6 mph - N/A   Clear
12:55 PM 46.4 °F 44.3 °F 21.2 °F 37% 30.13 in 10.0 mi SSE 4.6 mph - N/A   Clear
1:15 PM 46.4 °F 43.5 °F 21.2 °F 37% 30.12 in 10.0 mi SSE 5.8 mph - N/A   Clear
1:35 PM 46.4 °F 42.9 °F 23.0 °F 40% 30.11 in 10.0 mi South 6.9 mph - N/A   Clear
1:55 PM 48.2 °F - 23.0 °F 37% 30.10 in 9.0 mi South 5.8 mph - N/A   Clear
2:15 PM 48.2 °F - 23.0 °F 37% 30.09 in 10.0 mi South 4.6 mph - N/A   Clear
2:35 PM 48.2 °F - 24.8 °F 40% 30.08 in 10.0 mi SSW 5.8 mph - N/A   Clear
2:55 PM 50.0 °F - 24.8 °F 37% 30.08 in 10.0 mi SSW 6.9 mph - N/A   Clear
3:15 PM 50.0 °F - 24.8 °F 37% 30.08 in 10.0 mi South 3.5 mph - N/A   Clear
3:35 PM 50.0 °F - 24.8 °F 37% 30.07 in 10.0 mi South 5.8 mph - N/A   Clear
3:55 PM 50.0 °F - 24.8 °F 37% 30.07 in 10.0 mi South 6.9 mph - N/A   Clear
4:15 PM 50.0 °F - 26.6 °F 40% 30.06 in 10.0 mi South 6.9 mph - N/A   Clear
4:35 PM 48.2 °F - 28.4 °F 46% 30.06 in 10.0 mi SE 3.5 mph - N/A   Clear
4:55 PM 46.4 °F - 28.4 °F 50% 30.05 in 10.0 mi Calm Calm - N/A   Clear
5:15 PM 44.6 °F 41.4 °F 28.4 °F 53% 30.04 in 10.0 mi SE 5.8 mph - N/A   Clear
5:35 PM 44.6 °F 43.1 °F 30.2 °F 57% 30.04 in 10.0 mi SSE 3.5 mph - N/A   Clear
5:55 PM 44.6 °F 43.1 °F 30.2 °F 57% 30.04 in 10.0 mi SSE 3.5 mph - N/A   Clear
6:15 PM 42.8 °F 40.1 °F 30.2 °F 61% 30.03 in 10.0 mi SSE 4.6 mph - N/A   Clear
6:35 PM 42.8 °F 40.1 °F 32.0 °F 66% 30.04 in 10.0 mi SE 4.6 mph - N/A   Clear
6:55 PM 41.0 °F 37.1 °F 32.0 °F 70% 30.04 in 10.0 mi SSE 5.8 mph - N/A   Clear
7:15 PM 41.0 °F 39.0 °F 32.0 °F 70% 30.04 in 10.0 mi SSE 3.5 mph - N/A   Partly Cloudy
7:35 PM 41.0 °F 39.0 °F 32.0 °F 70% 30.04 in 10.0 mi South 3.5 mph - N/A   Mostly Cloudy
7:55 PM 41.0 °F 37.1 °F 32.0 °F 70% 30.04 in 10.0 mi SSE 5.8 mph - N/A   Overcast
8:15 PM 41.0 °F 38.0 °F 32.0 °F 70% 30.04 in 10.0 mi SSE 4.6 mph - N/A   Mostly Cloudy
8:35 PM 41.0 °F 38.0 °F 32.0 °F 70% 30.04 in 10.0 mi SSE 4.6 mph - N/A   Partly Cloudy
8:55 PM 41.0 °F 39.0 °F 32.0 °F 70% 30.04 in 10.0 mi SSE 3.5 mph - N/A   Clear
9:15 PM 41.0 °F 39.0 °F 32.0 °F 70% 30.05 in 10.0 mi SSE 3.5 mph - N/A   Clear
9:35 PM 41.0 °F 38.0 °F 32.0 °F 70% 30.06 in 10.0 mi South 4.6 mph - N/A   Mostly Cloudy
9:55 PM 41.0 °F 39.0 °F 33.8 °F 76% 30.06 in 10.0 mi SSE 3.5 mph - N/A   Overcast
10:15 PM 41.0 °F 39.0 °F 33.8 °F 76% 30.06 in 10.0 mi SSE 3.5 mph - N/A   Overcast
10:35 PM 41.0 °F 39.0 °F 33.8 °F 76% 30.06 in 10.0 mi SE 3.5 mph - N/A   Overcast
10:55 PM 41.0 °F 39.0 °F 33.8 °F 76% 30.06 in 10.0 mi SSE 3.5 mph - N/A   Overcast
11:15 PM 41.0 °F - 33.8 °F 76% 30.06 in 10.0 mi Calm Calm - N/A   Overcast
11:35 PM 41.0 °F 38.0 °F 33.8 °F 76% 30.05 in 10.0 mi SSE 4.6 mph - N/A   Overcast
11:55 PM 41.0 °F 39.0 °F 33.8 °F 76% 30.05 in 10.0 mi SSE 3.5 mph - N/A   Overcast